Time,TemperatureF,DewpointF,PressureIn,WindDirection,WindDirectionDegrees,WindSpeedMPH,WindSpeedGustMPH,Humidity,HourlyPrecipIn,Conditions,Clouds,dailyrainin,SoftwareType,DateUTC
2013-02-01 00:02:00,46.2,36.7,30.28,South,184,0.0,1.0,69,0.00,,,0.00,WUHU216DAVISVP2,2013-02-01 06:02:00,
2013-02-01 00:07:00,46.5,37.0,30.28,South,184,0.0,1.0,69,0.00,,,0.00,WUHU216DAVISVP2,2013-02-01 06:07:00,
2013-02-01 00:12:00,46.7,36.8,30.28,South,184,0.0,1.0,68,0.00,,,0.00,WUHU216DAVISVP2,2013-02-01 06:12:00,
2013-02-01 00:17:00,46.9,37.0,30.27,South,184,0.0,1.0,68,0.00,,,0.00,WUHU216DAVISVP2,2013-02-01 06:17:00,
2013-02-01 00:22:00,47.0,37.1,30.27,South,184,0.0,1.0,68,0.00,,,0.00,WUHU216DAVISVP2,2013-02-01 06:22:00,
2013-02-01 00:27:00,47.2,37.3,30.27,South,184,0.0,1.0,68,0.00,,,0.00,WUHU216DAVISVP2,2013-02-01 06:27:00,
2013-02-01 00:32:00,47.3,37.4,30.27,South,184,0.0,1.0,68,0.00,,,0.00,WUHU216DAVISVP2,2013-02-01 06:32:00,
2013-02-01 00:37:00,47.4,37.8,30.27,South,184,0.0,1.0,69,0.00,,,0.00,WUHU216DAVISVP2,2013-02-01 06:37:00,
2013-02-01 00:42:00,47.4,37.5,30.27,South,184,0.0,0.0,68,0.00,,,0.00,WUHU216DAVISVP2,2013-02-01 06:42:00,
2013-02-01 00:47:00,47.3,37.0,30.27,South,184,0.0,0.0,67,0.00,,,0.00,WUHU216DAVISVP2,2013-02-01 06:47:00,
2013-02-01 00:52:00,47.3,36.6,30.26,South,184,0.0,0.0,66,0.00,,,0.00,WUHU216DAVISVP2,2013-02-01 06:52:00,
2013-02-01 00:57:00,47.2,36.5,30.27,South,184,0.0,0.0,66,0.00,,,0.00,WUHU216DAVISVP2,2013-02-01 06:57:00,
2013-02-01 01:02:00,47.2,36.5,30.27,South,184,0.0,0.0,66,0.00,,,0.00,WUHU216DAVISVP2,2013-02-01 07:02:00,
2013-02-01 01:07:00,47.1,37.2,30.27,South,184,0.0,0.0,68,0.00,,,0.00,WUHU216DAVISVP2,2013-02-01 07:07:00,
2013-02-01 01:12:00,47.0,37.1,30.27,South,184,0.0,0.0,68,0.00,,,0.00,WUHU216DAVISVP2,2013-02-01 07:12:00,
2013-02-01 01:17:00,46.9,37.7,30.27,South,184,0.0,0.0,70,0.00,,,0.00,WUHU216DAVISVP2,2013-02-01 07:17:00,
2013-02-01 01:22:00,46.9,37.4,30.27,South,184,0.0,0.0,69,0.00,,,0.00,WUHU216DAVISVP2,2013-02-01 07:22:00,
2013-02-01 01:27:00,46.8,37.6,30.27,South,184,0.0,0.0,70,0.00,,,0.00,WUHU216DAVISVP2,2013-02-01 07:27:00,
2013-02-01 01:32:00,46.7,37.5,30.27,South,184,0.0,0.0,70,0.00,,,0.00,WUHU216DAVISVP2,2013-02-01 07:32:00,
2013-02-01 01:37:00,46.7,37.5,30.27,South,184,0.0,0.0,70,0.00,,,0.00,WUHU216DAVISVP2,2013-02-01 07:37:00,
2013-02-01 01:42:00,46.6,37.4,30.27,South,184,0.0,0.0,70,0.00,,,0.00,WUHU216DAVISVP2,2013-02-01 07:42:00,
2013-02-01 01:47:00,46.6,37.4,30.27,South,184,0.0,0.0,70,0.00,,,0.00,WUHU216DAVISVP2,2013-02-01 07:47:00,
2013-02-01 01:52:00,46.5,37.3,30.27,South,184,0.0,0.0,70,0.00,,,0.00,WUHU216DAVISVP2,2013-02-01 07:52:00,
2013-02-01 01:57:00,46.5,37.0,30.27,South,184,0.0,0.0,69,0.00,,,0.00,WUHU216DAVISVP2,2013-02-01 07:57:00,
2013-02-01 02:02:00,46.4,37.2,30.27,South,184,0.0,0.0,70,0.00,,,0.00,WUHU216DAVISVP2,2013-02-01 08:02:00,
2013-02-01 02:07:00,46.4,37.2,30.27,South,184,0.0,0.0,70,0.00,,,0.00,WUHU216DAVISVP2,2013-02-01 08:07:00,
2013-02-01 02:12:00,46.4,37.2,30.27,South,184,0.0,0.0,70,0.00,,,0.00,WUHU216DAVISVP2,2013-02-01 08:12:00,
2013-02-01 02:17:00,46.4,37.6,30.27,South,184,0.0,0.0,71,0.00,,,0.00,WUHU216DAVISVP2,2013-02-01 08:17:00,
2013-02-01 02:22:00,46.3,37.1,30.27,South,184,0.0,0.0,70,0.00,,,0.00,WUHU216DAVISVP2,2013-02-01 08:22:00,
2013-02-01 02:27:00,46.3,37.5,30.27,South,184,0.0,0.0,71,0.00,,,0.00,WUHU216DAVISVP2,2013-02-01 08:27:00,
2013-02-01 02:32:00,46.3,37.5,30.27,South,184,0.0,0.0,71,0.00,,,0.00,WUHU216DAVISVP2,2013-02-01 08:32:00,
2013-02-01 02:37:00,46.4,37.9,30.27,South,184,0.0,0.0,72,0.00,,,0.00,WUHU216DAVISVP2,2013-02-01 08:37:00,
2013-02-01 02:42:00,46.4,37.6,30.27,South,184,0.0,0.0,71,0.00,,,0.00,WUHU216DAVISVP2,2013-02-01 08:42:00,
2013-02-01 02:47:00,46.4,38.3,30.27,South,184,0.0,0.0,73,0.00,,,0.00,WUHU216DAVISVP2,2013-02-01 08:47:00,
2013-02-01 02:52:00,46.5,38.4,30.27,South,184,0.0,0.0,73,0.00,,,0.00,WUHU216DAVISVP2,2013-02-01 08:52:00,
2013-02-01 02:57:00,46.5,38.4,30.27,South,184,0.0,0.0,73,0.00,,,0.00,WUHU216DAVISVP2,2013-02-01 08:57:00,
2013-02-01 03:02:00,46.6,38.5,30.27,South,184,0.0,0.0,73,0.00,,,0.00,WUHU216DAVISVP2,2013-02-01 09:02:00,
2013-02-01 03:07:00,46.8,38.7,30.27,South,184,0.0,0.0,73,0.00,,,0.00,WUHU216DAVISVP2,2013-02-01 09:07:00,
2013-02-01 03:12:00,46.9,38.8,30.27,South,184,0.0,0.0,73,0.00,,,0.00,WUHU216DAVISVP2,2013-02-01 09:12:00,
2013-02-01 03:17:00,47.0,38.9,30.27,South,184,0.0,0.0,73,0.00,,,0.00,WUHU216DAVISVP2,2013-02-01 09:17:00,
2013-02-01 03:22:00,47.2,39.1,30.28,South,184,0.0,0.0,73,0.00,,,0.00,WUHU216DAVISVP2,2013-02-01 09:22:00,
2013-02-01 03:27:00,47.4,39.3,30.27,South,184,0.0,0.0,73,0.00,,,0.00,WUHU216DAVISVP2,2013-02-01 09:27:00,
2013-02-01 03:32:00,47.4,39.3,30.28,South,184,0.0,0.0,73,0.00,,,0.00,WUHU216DAVISVP2,2013-02-01 09:32:00,
2013-02-01 03:37:00,47.6,39.8,30.27,South,184,0.0,0.0,74,0.00,,,0.00,WUHU216DAVISVP2,2013-02-01 09:37:00,
2013-02-01 03:42:00,47.6,39.8,30.28,South,184,0.0,0.0,74,0.00,,,0.00,WUHU216DAVISVP2,2013-02-01 09:42:00,
2013-02-01 03:47:00,47.7,39.9,30.28,South,184,0.0,0.0,74,0.00,,,0.00,WUHU216DAVISVP2,2013-02-01 09:47:00,
2013-02-01 03:52:00,47.7,39.9,30.27,South,184,0.0,0.0,74,0.00,,,0.00,WUHU216DAVISVP2,2013-02-01 09:52:00,
2013-02-01 03:57:00,47.7,39.9,30.27,South,184,0.0,0.0,74,0.00,,,0.00,WUHU216DAVISVP2,2013-02-01 09:57:00,
2013-02-01 04:02:00,47.6,39.8,30.28,South,184,0.0,0.0,74,0.00,,,0.00,WUHU216DAVISVP2,2013-02-01 10:02:00,
2013-02-01 04:07:00,47.5,39.4,30.28,South,184,0.0,0.0,73,0.00,,,0.00,WUHU216DAVISVP2,2013-02-01 10:07:00,
2013-02-01 04:12:00,47.4,39.3,30.28,South,184,0.0,0.0,73,0.00,,,0.00,WUHU216DAVISVP2,2013-02-01 10:12:00,
2013-02-01 04:17:00,47.4,39.3,30.28,South,184,0.0,0.0,73,0.00,,,0.00,WUHU216DAVISVP2,2013-02-01 10:17:00,
2013-02-01 04:22:00,47.3,39.5,30.28,South,184,0.0,0.0,74,0.00,,,0.00,WUHU216DAVISVP2,2013-02-01 10:22:00,
2013-02-01 04:27:00,47.2,39.4,30.28,South,184,0.0,0.0,74,0.00,,,0.00,WUHU216DAVISVP2,2013-02-01 10:27:00,
2013-02-01 04:32:00,47.3,39.8,30.29,South,184,0.0,0.0,75,0.00,,,0.00,WUHU216DAVISVP2,2013-02-01 10:32:00,
2013-02-01 04:37:00,47.3,39.8,30.29,South,184,0.0,0.0,75,0.00,,,0.00,WUHU216DAVISVP2,2013-02-01 10:37:00,
2013-02-01 04:42:00,47.3,39.5,30.29,South,184,0.0,0.0,74,0.00,,,0.00,WUHU216DAVISVP2,2013-02-01 10:42:00,
2013-02-01 04:47:00,47.3,39.5,30.29,South,184,0.0,0.0,74,0.00,,,0.00,WUHU216DAVISVP2,2013-02-01 10:47:00,
2013-02-01 04:52:00,47.3,39.8,30.30,South,184,0.0,0.0,75,0.00,,,0.00,WUHU216DAVISVP2,2013-02-01 10:52:00,
2013-02-01 04:57:00,47.3,39.8,30.29,South,184,0.0,0.0,75,0.00,,,0.00,WUHU216DAVISVP2,2013-02-01 10:57:00,
2013-02-01 05:02:00,47.4,39.9,30.29,South,184,0.0,0.0,75,0.00,,,0.00,WUHU216DAVISVP2,2013-02-01 11:02:00,
2013-02-01 05:07:00,47.4,39.9,30.29,South,184,0.0,0.0,75,0.00,,,0.00,WUHU216DAVISVP2,2013-02-01 11:07:00,
2013-02-01 05:12:00,47.4,39.6,30.29,South,184,0.0,0.0,74,0.00,,,0.00,WUHU216DAVISVP2,2013-02-01 11:12:00,
2013-02-01 05:17:00,47.4,39.9,30.29,South,184,0.0,0.0,75,0.00,,,0.00,WUHU216DAVISVP2,2013-02-01 11:17:00,
2013-02-01 05:22:00,47.4,40.3,30.29,South,184,0.0,0.0,76,0.00,,,0.00,WUHU216DAVISVP2,2013-02-01 11:22:00,
2013-02-01 05:27:00,47.4,39.9,30.29,South,184,0.0,0.0,75,0.00,,,0.00,WUHU216DAVISVP2,2013-02-01 11:27:00,
2013-02-01 05:32:00,47.4,40.3,30.30,South,184,0.0,0.0,76,0.00,,,0.00,WUHU216DAVISVP2,2013-02-01 11:32:00,
2013-02-01 05:37:00,47.4,40.3,30.30,South,184,0.0,0.0,76,0.00,,,0.00,WUHU216DAVISVP2,2013-02-01 11:37:00,
2013-02-01 05:42:00,47.4,40.6,30.30,South,184,0.0,0.0,77,0.00,,,0.00,WUHU216DAVISVP2,2013-02-01 11:42:00,
2013-02-01 05:47:00,47.5,41.0,30.30,South,184,0.0,0.0,78,0.00,,,0.00,WUHU216DAVISVP2,2013-02-01 11:47:00,
2013-02-01 05:52:00,47.4,40.6,30.30,South,184,0.0,0.0,77,0.00,,,0.00,WUHU216DAVISVP2,2013-02-01 11:52:00,
2013-02-01 05:57:00,47.4,40.9,30.30,South,184,0.0,0.0,78,0.00,,,0.00,WUHU216DAVISVP2,2013-02-01 11:57:00,
2013-02-01 06:02:00,47.3,40.8,30.30,South,184,0.0,0.0,78,0.00,,,0.00,WUHU216DAVISVP2,2013-02-01 12:02:00,
2013-02-01 06:07:00,47.2,40.4,30.30,South,184,0.0,0.0,77,0.00,,,0.00,WUHU216DAVISVP2,2013-02-01 12:07:00,
2013-02-01 06:12:00,47.1,40.6,30.30,South,184,0.0,0.0,78,0.00,,,0.00,WUHU216DAVISVP2,2013-02-01 12:12:00,
2013-02-01 06:18:00,46.9,40.4,30.30,South,184,0.0,0.0,78,0.00,,,0.00,WUHU216DAVISVP2,2013-02-01 12:18:00,
2013-02-01 06:23:00,46.9,41.1,30.30,South,184,0.0,0.0,80,0.00,,,0.00,WUHU216DAVISVP2,2013-02-01 12:23:00,
2013-02-01 06:28:00,46.7,40.6,30.30,South,184,0.0,0.0,79,0.00,,,0.00,WUHU216DAVISVP2,2013-02-01 12:28:00,
2013-02-01 06:33:00,46.7,40.9,30.30,South,184,0.0,0.0,80,0.00,,,0.00,WUHU216DAVISVP2,2013-02-01 12:33:00,
2013-02-01 06:38:00,46.7,41.2,30.31,South,184,0.0,0.0,81,0.00,,,0.00,WUHU216DAVISVP2,2013-02-01 12:38:00,
2013-02-01 06:43:00,46.7,41.2,30.30,South,184,0.0,0.0,81,0.00,,,0.00,WUHU216DAVISVP2,2013-02-01 12:43:00,
2013-02-01 06:48:00,46.7,40.9,30.30,South,184,0.0,0.0,80,0.00,,,0.00,WUHU216DAVISVP2,2013-02-01 12:48:00,
2013-02-01 06:53:00,46.6,40.5,30.30,South,184,0.0,0.0,79,0.00,,,0.00,WUHU216DAVISVP2,2013-02-01 12:53:00,
2013-02-01 06:58:00,46.5,40.7,30.31,South,184,0.0,0.0,80,0.00,,,0.00,WUHU216DAVISVP2,2013-02-01 12:58:00,
2013-02-01 07:03:00,46.4,40.6,30.31,South,184,0.0,0.0,80,0.00,,,0.00,WUHU216DAVISVP2,2013-02-01 13:03:00,
2013-02-01 07:08:00,46.3,40.5,30.31,South,186,0.0,0.0,80,0.00,,,0.00,WUHU216DAVISVP2,2013-02-01 13:08:00,
2013-02-01 07:13:00,46.1,40.3,30.31,South,186,0.0,0.0,80,0.00,,,0.00,WUHU216DAVISVP2,2013-02-01 13:13:00,
2013-02-01 07:18:00,46.0,40.2,30.31,South,186,0.0,0.0,80,0.00,,,0.00,WUHU216DAVISVP2,2013-02-01 13:18:00,
2013-02-01 07:23:00,45.9,39.8,30.31,South,186,0.0,0.0,79,0.00,,,0.00,WUHU216DAVISVP2,2013-02-01 13:23:00,
2013-02-01 07:28:00,45.8,39.7,30.32,South,186,0.0,0.0,79,0.00,,,0.00,WUHU216DAVISVP2,2013-02-01 13:28:00,
2013-02-01 07:33:00,45.6,39.8,30.32,South,186,0.0,0.0,80,0.00,,,0.00,WUHU216DAVISVP2,2013-02-01 13:33:00,
2013-02-01 07:38:00,45.7,40.2,30.32,South,186,0.0,0.0,81,0.00,,,0.00,WUHU216DAVISVP2,2013-02-01 13:38:00,
2013-02-01 07:43:00,45.7,39.9,30.32,South,186,0.0,0.0,80,0.00,,,0.00,WUHU216DAVISVP2,2013-02-01 13:43:00,
2013-02-01 07:48:00,45.7,39.9,30.32,South,186,0.0,0.0,80,0.00,,,0.00,WUHU216DAVISVP2,2013-02-01 13:48:00,
2013-02-01 07:53:00,45.6,39.8,30.32,South,186,0.0,0.0,80,0.00,,,0.00,WUHU216DAVISVP2,2013-02-01 13:53:00,
2013-02-01 07:58:00,45.7,40.2,30.32,South,186,0.0,0.0,81,0.00,,,0.00,WUHU216DAVISVP2,2013-02-01 13:58:00,
2013-02-01 08:03:00,46.0,40.5,30.33,South,186,0.0,1.0,81,0.00,,,0.00,WUHU216DAVISVP2,2013-02-01 14:03:00,
2013-02-01 08:08:00,46.5,41.0,30.33,South,186,0.0,1.0,81,0.00,,,0.00,WUHU216DAVISVP2,2013-02-01 14:08:00,
2013-02-01 08:13:00,47.1,41.6,30.33,South,186,0.0,2.0,81,0.00,,,0.00,WUHU216DAVISVP2,2013-02-01 14:13:00,
2013-02-01 08:18:00,47.9,42.1,30.34,East,89,1.0,2.0,80,0.00,,,0.00,WUHU216DAVISVP2,2013-02-01 14:18:00,
2013-02-01 08:23:00,48.7,42.5,30.34,ENE,63,2.0,3.0,79,0.00,,,0.00,WUHU216DAVISVP2,2013-02-01 14:23:00,
2013-02-01 08:28:00,49.3,42.8,30.34,ENE,63,1.0,3.0,78,0.00,,,0.00,WUHU216DAVISVP2,2013-02-01 14:28:00,
2013-02-01 08:33:00,49.6,42.7,30.34,ENE,63,0.0,3.0,77,0.00,,,0.00,WUHU216DAVISVP2,2013-02-01 14:33:00,
2013-02-01 08:38:00,50.1,42.9,30.34,ENE,62,1.0,3.0,76,0.00,,,0.00,WUHU216DAVISVP2,2013-02-01 14:38:00,
2013-02-01 08:43:00,50.6,43.4,30.34,ENE,62,0.0,3.0,76,0.00,,,0.00,WUHU216DAVISVP2,2013-02-01 14:43:00,
2013-02-01 08:48:00,51.2,44.0,30.34,ENE,61,2.0,3.0,76,0.00,,,0.00,WUHU216DAVISVP2,2013-02-01 14:48:00,
2013-02-01 08:53:00,51.7,44.1,30.34,ENE,62,0.0,3.0,75,0.00,,,0.00,WUHU216DAVISVP2,2013-02-01 14:53:00,
2013-02-01 08:58:00,52.1,44.2,30.34,ENE,61,1.0,3.0,74,0.00,,,0.00,WUHU216DAVISVP2,2013-02-01 14:58:00,
2013-02-01 09:03:00,52.7,44.7,30.35,ENE,61,1.0,3.0,74,0.00,,,0.00,WUHU216DAVISVP2,2013-02-01 15:03:00,
2013-02-01 09:08:00,53.4,45.1,30.35,ENE,61,1.0,3.0,73,0.00,,,0.00,WUHU216DAVISVP2,2013-02-01 15:08:00,
2013-02-01 09:13:00,53.8,45.1,30.35,ENE,61,1.0,3.0,72,0.00,,,0.00,WUHU216DAVISVP2,2013-02-01 15:13:00,
2013-02-01 09:18:00,54.2,45.5,30.35,ENE,61,3.0,3.0,72,0.00,,,0.00,WUHU216DAVISVP2,2013-02-01 15:18:00,
2013-02-01 09:23:00,54.5,45.4,30.35,ENE,61,0.0,3.0,71,0.00,,,0.00,WUHU216DAVISVP2,2013-02-01 15:23:00,
2013-02-01 09:28:00,54.6,45.5,30.35,ENE,61,0.0,3.0,71,0.00,,,0.00,WUHU216DAVISVP2,2013-02-01 15:28:00,
2013-02-01 09:33:00,54.9,45.8,30.34,ENE,61,0.0,3.0,71,0.00,,,0.00,WUHU216DAVISVP2,2013-02-01 15:33:00,
2013-02-01 09:38:00,55.1,46.0,30.35,ENE,61,0.0,1.0,71,0.00,,,0.00,WUHU216DAVISVP2,2013-02-01 15:38:00,
2013-02-01 09:43:00,55.4,46.3,30.35,ENE,61,0.0,1.0,71,0.00,,,0.00,WUHU216DAVISVP2,2013-02-01 15:43:00,
2013-02-01 09:48:00,56.0,46.5,30.35,ENE,61,0.0,1.0,70,0.00,,,0.00,WUHU216DAVISVP2,2013-02-01 15:48:00,
2013-02-01 09:53:00,56.5,47.0,30.35,ENE,61,0.0,1.0,70,0.00,,,0.00,WUHU216DAVISVP2,2013-02-01 15:53:00,
2013-02-01 09:58:00,56.8,47.2,30.34,ENE,61,0.0,1.0,70,0.00,,,0.00,WUHU216DAVISVP2,2013-02-01 15:58:00,
2013-02-01 10:03:00,57.1,47.5,30.34,ENE,61,0.0,1.0,70,0.00,,,0.00,WUHU216DAVISVP2,2013-02-01 16:03:00,
2013-02-01 10:07:00,57.3,47.3,30.34,ENE,61,0.0,1.0,69,0.00,,,0.00,WUHU216DAVISVP2,2013-02-01 16:07:00,
2013-02-01 10:13:00,57.7,47.7,30.34,ENE,61,0.0,1.0,69,0.00,,,0.00,WUHU216DAVISVP2,2013-02-01 16:13:00,
2013-02-01 10:18:00,58.4,48.0,30.34,ENE,61,0.0,2.0,68,0.00,,,0.00,WUHU216DAVISVP2,2013-02-01 16:18:00,
2013-02-01 10:23:00,59.1,48.7,30.34,ENE,69,0.0,2.0,68,0.00,,,0.00,WUHU216DAVISVP2,2013-02-01 16:23:00,
2013-02-01 10:28:00,59.7,49.3,30.34,South,184,0.0,4.0,68,0.00,,,0.00,WUHU216DAVISVP2,2013-02-01 16:28:00,
2013-02-01 10:33:00,60.2,49.3,30.34,South,188,0.0,4.0,67,0.00,,,0.00,WUHU216DAVISVP2,2013-02-01 16:33:00,
2013-02-01 10:38:00,60.7,49.4,30.34,South,188,1.0,4.0,66,0.00,,,0.00,WUHU216DAVISVP2,2013-02-01 16:38:00,
2013-02-01 10:43:00,61.2,49.5,30.34,South,188,0.0,4.0,65,0.00,,,0.00,WUHU216DAVISVP2,2013-02-01 16:43:00,
2013-02-01 10:48:00,61.7,49.6,30.34,South,188,0.0,3.0,64,0.00,,,0.00,WUHU216DAVISVP2,2013-02-01 16:48:00,
2013-02-01 10:53:00,62.2,49.6,30.34,South,190,0.0,4.0,63,0.00,,,0.00,WUHU216DAVISVP2,2013-02-01 16:53:00,
2013-02-01 10:58:00,62.6,50.0,30.34,SSW,202,0.0,4.0,63,0.00,,,0.00,WUHU216DAVISVP2,2013-02-01 16:58:00,
2013-02-01 11:03:00,62.9,49.8,30.34,SSW,196,0.0,4.0,62,0.00,,,0.00,WUHU216DAVISVP2,2013-02-01 17:03:00,
2013-02-01 11:08:00,63.4,49.4,30.34,SSW,198,2.0,4.0,60,0.00,,,0.00,WUHU216DAVISVP2,2013-02-01 17:08:00,
2013-02-01 11:13:00,64.0,49.1,30.33,SSW,196,0.0,4.0,58,0.00,,,0.00,WUHU216DAVISVP2,2013-02-01 17:13:00,
2013-02-01 11:18:00,64.3,48.9,30.33,SW,214,2.0,4.0,57,0.00,,,0.00,WUHU216DAVISVP2,2013-02-01 17:18:00,
2013-02-01 11:24:00,64.9,49.4,30.33,SW,219,0.0,4.0,57,0.00,,,0.00,WUHU216DAVISVP2,2013-02-01 17:24:00,
2013-02-01 11:29:00,65.1,48.6,30.33,SW,219,0.0,4.0,55,0.00,,,0.00,WUHU216DAVISVP2,2013-02-01 17:29:00,
2013-02-01 11:34:00,65.4,49.9,30.32,SW,219,0.0,3.0,57,0.00,,,0.00,WUHU216DAVISVP2,2013-02-01 17:34:00,
2013-02-01 11:39:00,66.0,47.9,30.32,SW,218,1.0,3.0,52,0.00,,,0.00,WUHU216DAVISVP2,2013-02-01 17:39:00,
2013-02-01 11:44:00,66.5,48.4,30.32,South,181,0.0,3.0,52,0.00,,,0.00,WUHU216DAVISVP2,2013-02-01 17:44:00,
2013-02-01 11:49:00,66.9,48.8,30.32,South,181,0.0,3.0,52,0.00,,,0.00,WUHU216DAVISVP2,2013-02-01 17:49:00,
2013-02-01 11:54:00,67.4,48.7,30.32,South,181,0.0,3.0,51,0.00,,,0.00,WUHU216DAVISVP2,2013-02-01 17:54:00,
2013-02-01 11:59:00,68.3,49.5,30.31,South,187,1.0,3.0,51,0.00,,,0.00,WUHU216DAVISVP2,2013-02-01 17:59:00,
2013-02-01 12:04:00,68.5,46.9,30.31,South,187,1.0,3.0,46,0.00,,,0.00,WUHU216DAVISVP2,2013-02-01 18:04:00,
2013-02-01 12:09:00,68.8,46.6,30.31,NW,326,0.0,4.0,45,0.00,,,0.00,WUHU216DAVISVP2,2013-02-01 18:09:00,
2013-02-01 12:14:00,69.0,47.3,30.31,SSW,194,1.0,4.0,46,0.00,,,0.00,WUHU216DAVISVP2,2013-02-01 18:14:00,
2013-02-01 12:19:00,69.3,45.1,30.30,North,350,1.0,4.0,42,0.00,,,0.00,WUHU216DAVISVP2,2013-02-01 18:19:00,
2013-02-01 12:24:00,69.3,47.0,30.30,South,169,0.0,4.0,45,0.00,,,0.00,WUHU216DAVISVP2,2013-02-01 18:24:00,
2013-02-01 12:29:00,69.9,48.2,30.30,NW,313,2.0,4.0,46,0.00,,,0.00,WUHU216DAVISVP2,2013-02-01 18:29:00,
2013-02-01 12:34:00,69.7,46.8,30.30,NNW,327,0.0,4.0,44,0.00,,,0.00,WUHU216DAVISVP2,2013-02-01 18:34:00,
2013-02-01 12:39:00,69.1,46.2,30.30,NNW,348,0.0,5.0,44,0.00,,,0.00,WUHU216DAVISVP2,2013-02-01 18:39:00,
2013-02-01 12:44:00,68.8,46.6,30.29,NNW,348,0.0,5.0,45,0.00,,,0.00,WUHU216DAVISVP2,2013-02-01 18:44:00,
2013-02-01 12:49:00,69.4,47.1,30.28,South,185,0.0,5.0,45,0.00,,,0.00,WUHU216DAVISVP2,2013-02-01 18:49:00,
2013-02-01 12:54:00,69.9,45.1,30.28,SW,222,1.0,3.0,41,0.00,,,0.00,WUHU216DAVISVP2,2013-02-01 18:54:00,
2013-02-01 12:59:00,70.4,45.6,30.28,WNW,300,1.0,3.0,41,0.00,,,0.00,WUHU216DAVISVP2,2013-02-01 18:59:00,
2013-02-01 13:04:00,70.6,45.7,30.28,NE,45,2.0,3.0,41,0.00,,,0.00,WUHU216DAVISVP2,2013-02-01 19:04:00,
2013-02-01 13:09:00,70.5,43.0,30.27,North,360,0.0,4.0,37,0.00,,,0.00,WUHU216DAVISVP2,2013-02-01 19:09:00,
2013-02-01 13:14:00,70.4,44.9,30.27,NNW,340,2.0,5.0,40,0.00,,,0.00,WUHU216DAVISVP2,2013-02-01 19:14:00,
2013-02-01 13:19:00,69.7,42.9,30.27,North,355,3.0,8.0,38,0.00,,,0.00,WUHU216DAVISVP2,2013-02-01 19:19:00,
2013-02-01 13:24:00,69.6,44.8,30.27,North,355,1.0,8.0,41,0.00,,,0.00,WUHU216DAVISVP2,2013-02-01 19:24:00,
2013-02-01 13:29:00,70.3,47.3,30.26,SSE,155,0.0,8.0,44,0.00,,,0.00,WUHU216DAVISVP2,2013-02-01 19:29:00,
2013-02-01 13:34:00,71.1,46.8,30.27,South,180,1.0,8.0,42,0.00,,,0.00,WUHU216DAVISVP2,2013-02-01 19:34:00,
2013-02-01 13:39:00,71.1,44.8,30.26,NNW,346,2.0,5.0,39,0.00,,,0.00,WUHU216DAVISVP2,2013-02-01 19:39:00,
2013-02-01 13:44:00,71.1,46.8,30.26,SW,229,0.0,4.0,42,0.00,,,0.00,WUHU216DAVISVP2,2013-02-01 19:44:00,
2013-02-01 13:49:00,71.6,46.6,30.25,South,182,0.0,4.0,41,0.00,,,0.00,WUHU216DAVISVP2,2013-02-01 19:49:00,
2013-02-01 13:54:00,71.8,46.1,30.25,SSE,153,0.0,4.0,40,0.00,,,0.00,WUHU216DAVISVP2,2013-02-01 19:54:00,
2013-02-01 13:59:00,71.4,45.7,30.25,North,355,2.0,3.0,40,0.00,,,0.00,WUHU216DAVISVP2,2013-02-01 19:59:00,
2013-02-01 14:04:00,71.0,44.8,30.25,NNW,344,1.0,5.0,39,0.00,,,0.00,WUHU216DAVISVP2,2013-02-01 20:04:00,
2013-02-01 14:09:00,70.7,44.4,30.25,NNW,344,2.0,5.0,39,0.00,,,0.00,WUHU216DAVISVP2,2013-02-01 20:09:00,
2013-02-01 14:14:00,71.0,42.5,30.24,NE,49,2.0,5.0,36,0.00,,,0.00,WUHU216DAVISVP2,2013-02-01 20:14:00,
2013-02-01 14:19:00,71.3,43.0,30.25,SSE,165,1.0,4.0,36,0.00,,,0.00,WUHU216DAVISVP2,2013-02-01 20:19:00,
2013-02-01 14:24:00,71.2,42.1,30.24,North,349,3.0,5.0,35,0.00,,,0.00,WUHU216DAVISVP2,2013-02-01 20:24:00,
2013-02-01 14:29:00,71.1,42.6,30.24,North,355,0.0,5.0,36,0.00,,,0.00,WUHU216DAVISVP2,2013-02-01 20:29:00,
2013-02-01 14:34:00,71.2,43.4,30.24,South,184,1.0,5.0,37,0.00,,,0.00,WUHU216DAVISVP2,2013-02-01 20:34:00,
2013-02-01 14:39:00,71.7,43.9,30.24,SW,215,1.0,5.0,37,0.00,,,0.00,WUHU216DAVISVP2,2013-02-01 20:39:00,
2013-02-01 14:44:00,72.1,44.2,30.23,SSW,200,1.0,6.0,37,0.00,,,0.00,WUHU216DAVISVP2,2013-02-01 20:44:00,
2013-02-01 14:49:00,71.9,43.3,30.23,South,187,0.0,6.0,36,0.00,,,0.00,WUHU216DAVISVP2,2013-02-01 20:49:00,
2013-02-01 14:54:00,71.7,44.6,30.23,SW,216,0.0,6.0,38,0.00,,,0.00,WUHU216DAVISVP2,2013-02-01 20:54:00,
2013-02-01 14:59:00,72.0,44.1,30.23,SSW,195,0.0,6.0,37,0.00,,,0.00,WUHU216DAVISVP2,2013-02-01 20:59:00,
2013-02-01 15:04:00,71.9,41.0,30.23,ENE,71,2.0,6.0,33,0.00,,,0.00,WUHU216DAVISVP2,2013-02-01 21:04:00,
2013-02-01 15:09:00,71.3,40.5,30.23,WNW,291,1.0,5.0,33,0.00,,,0.00,WUHU216DAVISVP2,2013-02-01 21:09:00,
2013-02-01 15:14:00,70.9,40.9,30.23,NW,326,2.0,5.0,34,0.00,,,0.00,WUHU216DAVISVP2,2013-02-01 21:14:00,
2013-02-01 15:19:00,70.7,40.8,30.23,SSE,151,1.0,7.0,34,0.00,,,0.00,WUHU216DAVISVP2,2013-02-01 21:19:00,
2013-02-01 15:24:00,70.6,40.7,30.22,WNW,303,2.0,8.0,34,0.00,,,0.00,WUHU216DAVISVP2,2013-02-01 21:24:00,
2013-02-01 15:29:00,70.1,40.2,30.22,NNW,340,3.0,8.0,34,0.00,,,0.00,WUHU216DAVISVP2,2013-02-01 21:29:00,
2013-02-01 15:34:00,69.6,39.0,30.22,NW,308,3.0,8.0,33,0.00,,,0.00,WUHU216DAVISVP2,2013-02-01 21:34:00,
2013-02-01 15:39:00,69.8,40.7,30.22,North,9,3.0,8.0,35,0.00,,,0.00,WUHU216DAVISVP2,2013-02-01 21:39:00,
2013-02-01 15:44:00,69.7,40.6,30.22,South,190,3.0,8.0,35,0.00,,,0.00,WUHU216DAVISVP2,2013-02-01 21:44:00,
2013-02-01 15:49:00,69.4,37.3,30.23,North,355,4.0,8.0,31,0.00,,,0.00,WUHU216DAVISVP2,2013-02-01 21:49:00,
2013-02-01 15:54:00,69.4,40.4,30.23,SSW,202,1.0,7.0,35,0.00,,,0.00,WUHU216DAVISVP2,2013-02-01 21:54:00,
2013-02-01 15:59:00,69.0,39.3,30.22,WSW,242,3.0,7.0,34,0.00,,,0.00,WUHU216DAVISVP2,2013-02-01 21:59:00,
2013-02-01 16:04:00,68.6,38.9,30.23,North,355,5.0,7.0,34,0.00,,,0.00,WUHU216DAVISVP2,2013-02-01 22:04:00,
2013-02-01 16:09:00,68.3,40.1,30.23,SSW,194,1.0,7.0,36,0.00,,,0.00,WUHU216DAVISVP2,2013-02-01 22:09:00,
2013-02-01 16:14:00,68.1,40.7,30.23,North,355,1.0,7.0,37,0.00,,,0.00,WUHU216DAVISVP2,2013-02-01 22:14:00,
2013-02-01 16:19:00,67.8,40.4,30.22,NNE,28,3.0,6.0,37,0.00,,,0.00,WUHU216DAVISVP2,2013-02-01 22:19:00,
2013-02-01 16:24:00,67.5,40.8,30.23,NNE,26,3.0,7.0,38,0.00,,,0.00,WUHU216DAVISVP2,2013-02-01 22:24:00,
2013-02-01 16:29:00,67.2,40.6,30.23,ENE,78,2.0,7.0,38,0.00,,,0.00,WUHU216DAVISVP2,2013-02-01 22:29:00,
2013-02-01 16:34:00,66.9,41.0,30.23,WNW,288,2.0,7.0,39,0.00,,,0.00,WUHU216DAVISVP2,2013-02-01 22:34:00,
2013-02-01 16:39:00,66.6,40.7,30.23,NE,37,5.0,7.0,39,0.00,,,0.00,WUHU216DAVISVP2,2013-02-01 22:39:00,
2013-02-01 16:44:00,66.3,40.4,30.23,NNE,17,5.0,11.0,39,0.00,,,0.00,WUHU216DAVISVP2,2013-02-01 22:44:00,
2013-02-01 16:49:00,66.0,40.2,30.23,NNE,12,1.0,11.0,39,0.00,,,0.00,WUHU216DAVISVP2,2013-02-01 22:49:00,
2013-02-01 16:54:00,65.8,40.7,30.23,NNW,346,2.0,11.0,40,0.00,,,0.00,WUHU216DAVISVP2,2013-02-01 22:54:00,
2013-02-01 16:59:00,65.5,40.4,30.23,SSE,163,3.0,7.0,40,0.00,,,0.00,WUHU216DAVISVP2,2013-02-01 22:59:00,
2013-02-01 17:04:00,65.3,40.9,30.23,NNE,16,1.0,7.0,41,0.00,,,0.00,WUHU216DAVISVP2,2013-02-01 23:04:00,
2013-02-01 17:09:00,65.0,41.9,30.23,North,5,3.0,7.0,43,0.00,,,0.00,WUHU216DAVISVP2,2013-02-01 23:09:00,
2013-02-01 17:14:00,64.8,41.7,30.23,South,189,2.0,7.0,43,0.00,,,0.00,WUHU216DAVISVP2,2013-02-01 23:14:00,
2013-02-01 17:19:00,64.5,42.0,30.23,NNE,15,2.0,7.0,44,0.00,,,0.00,WUHU216DAVISVP2,2013-02-01 23:19:00,
2013-02-01 17:24:00,64.3,42.4,30.23,WNW,294,2.0,7.0,45,0.00,,,0.00,WUHU216DAVISVP2,2013-02-01 23:24:00,
2013-02-01 17:29:00,64.0,43.3,30.23,SSW,198,2.0,7.0,47,0.00,,,0.00,WUHU216DAVISVP2,2013-02-01 23:29:00,
2013-02-01 17:34:00,63.6,43.0,30.23,NNW,337,3.0,7.0,47,0.00,,,0.00,WUHU216DAVISVP2,2013-02-01 23:34:00,
2013-02-01 17:39:00,63.4,43.4,30.23,WSW,247,1.0,6.0,48,0.00,,,0.00,WUHU216DAVISVP2,2013-02-01 23:39:00,
2013-02-01 17:44:00,63.0,43.0,30.23,ENE,57,2.0,6.0,48,0.00,,,0.00,WUHU216DAVISVP2,2013-02-01 23:44:00,
2013-02-01 17:49:00,62.7,42.7,30.23,NNE,26,1.0,6.0,48,0.00,,,0.00,WUHU216DAVISVP2,2013-02-01 23:49:00,
2013-02-01 17:54:00,62.3,42.3,30.23,SSW,213,1.0,6.0,48,0.00,,,0.00,WUHU216DAVISVP2,2013-02-01 23:54:00,
2013-02-01 17:59:00,61.9,42.5,30.23,NE,35,1.0,6.0,49,0.00,,,0.00,WUHU216DAVISVP2,2013-02-01 23:59:00,
2013-02-01 18:04:00,61.6,42.2,30.23,SW,215,0.0,4.0,49,0.00,,,0.00,WUHU216DAVISVP2,2013-02-02 00:04:00,
2013-02-01 18:09:00,61.2,41.9,30.23,NNE,26,2.0,3.0,49,0.00,,,0.00,WUHU216DAVISVP2,2013-02-02 00:09:00,
2013-02-01 18:14:00,60.9,42.1,30.24,NNW,347,2.0,3.0,50,0.00,,,0.00,WUHU216DAVISVP2,2013-02-02 00:14:00,
2013-02-01 18:19:00,60.6,41.8,30.23,North,355,2.0,4.0,50,0.00,,,0.00,WUHU216DAVISVP2,2013-02-02 00:19:00,
2013-02-01 18:24:00,60.2,42.0,30.23,West,271,2.0,4.0,51,0.00,,,0.00,WUHU216DAVISVP2,2013-02-02 00:24:00,
2013-02-01 18:29:00,59.9,42.2,30.23,South,174,2.0,4.0,52,0.00,,,0.00,WUHU216DAVISVP2,2013-02-02 00:29:00,
2013-02-01 18:34:00,59.5,41.9,30.23,SSE,159,1.0,4.0,52,0.00,,,0.00,WUHU216DAVISVP2,2013-02-02 00:34:00,
2013-02-01 18:39:00,59.2,42.1,30.23,South,186,1.0,3.0,53,0.00,,,0.00,WUHU216DAVISVP2,2013-02-02 00:39:00,
2013-02-01 18:44:00,58.8,41.7,30.23,South,177,0.0,3.0,53,0.00,,,0.00,WUHU216DAVISVP2,2013-02-02 00:44:00,
2013-02-01 18:49:00,58.3,41.8,30.23,South,177,1.0,3.0,54,0.00,,,0.00,WUHU216DAVISVP2,2013-02-02 00:49:00,
2013-02-01 18:54:00,58.0,41.5,30.23,South,177,1.0,3.0,54,0.00,,,0.00,WUHU216DAVISVP2,2013-02-02 00:54:00,
2013-02-01 18:59:00,57.7,41.7,30.23,South,177,0.0,3.0,55,0.00,,,0.00,WUHU216DAVISVP2,2013-02-02 00:59:00,
2013-02-01 19:04:00,57.4,41.4,30.23,South,177,1.0,3.0,55,0.00,,,0.00,WUHU216DAVISVP2,2013-02-02 01:04:00,
2013-02-01 19:09:00,57.2,41.7,30.23,South,177,0.0,3.0,56,0.00,,,0.00,WUHU216DAVISVP2,2013-02-02 01:09:00,
2013-02-01 19:14:00,57.0,41.9,30.24,South,177,0.0,3.0,57,0.00,,,0.00,WUHU216DAVISVP2,2013-02-02 01:14:00,
2013-02-01 19:19:00,56.7,41.6,30.23,South,177,1.0,3.0,57,0.00,,,0.00,WUHU216DAVISVP2,2013-02-02 01:19:00,
2013-02-01 19:24:00,56.4,41.8,30.24,South,177,0.0,3.0,58,0.00,,,0.00,WUHU216DAVISVP2,2013-02-02 01:24:00,
2013-02-01 19:29:00,56.3,42.1,30.24,South,177,1.0,2.0,59,0.00,,,0.00,WUHU216DAVISVP2,2013-02-02 01:29:00,
2013-02-01 19:34:00,56.2,42.5,30.24,South,177,0.0,2.0,60,0.00,,,0.00,WUHU216DAVISVP2,2013-02-02 01:34:00,
2013-02-01 19:39:00,56.1,42.5,30.24,South,177,0.0,2.0,60,0.00,,,0.00,WUHU216DAVISVP2,2013-02-02 01:39:00,
2013-02-01 19:44:00,55.9,42.8,30.24,South,177,1.0,1.0,61,0.00,,,0.00,WUHU216DAVISVP2,2013-02-02 01:44:00,
2013-02-01 19:49:00,55.6,42.9,30.24,South,177,1.0,1.0,62,0.00,,,0.00,WUHU216DAVISVP2,2013-02-02 01:49:00,
2013-02-01 19:54:00,55.4,43.1,30.24,South,177,0.0,2.0,63,0.00,,,0.00,WUHU216DAVISVP2,2013-02-02 01:54:00,
2013-02-01 19:59:00,55.2,43.8,30.24,South,177,1.0,2.0,65,0.00,,,0.00,WUHU216DAVISVP2,2013-02-02 01:59:00,
2013-02-01 20:04:00,55.1,43.7,30.24,SSW,211,0.0,2.0,65,0.00,,,0.00,WUHU216DAVISVP2,2013-02-02 02:04:00,
2013-02-01 20:09:00,55.0,44.0,30.24,SSW,211,1.0,2.0,66,0.00,,,0.00,WUHU216DAVISVP2,2013-02-02 02:09:00,
2013-02-01 20:14:00,54.9,44.3,30.24,SSW,211,1.0,2.0,67,0.00,,,0.00,WUHU216DAVISVP2,2013-02-02 02:14:00,
2013-02-01 20:19:00,54.8,44.6,30.24,SSW,211,0.0,2.0,68,0.00,,,0.00,WUHU216DAVISVP2,2013-02-02 02:19:00,
2013-02-01 20:24:00,54.7,44.5,30.24,SSW,211,0.0,2.0,68,0.00,,,0.00,WUHU216DAVISVP2,2013-02-02 02:24:00,
2013-02-01 20:29:00,54.5,44.5,30.24,SSW,211,0.0,1.0,69,0.00,,,0.00,WUHU216DAVISVP2,2013-02-02 02:29:00,
2013-02-01 20:34:00,54.2,44.2,30.24,SSW,211,0.0,1.0,69,0.00,,,0.00,WUHU216DAVISVP2,2013-02-02 02:34:00,
2013-02-01 20:39:00,54.1,44.5,30.24,SSW,211,0.0,1.0,70,0.00,,,0.00,WUHU216DAVISVP2,2013-02-02 02:39:00,
2013-02-01 20:44:00,53.9,44.7,30.24,SSW,211,0.0,1.0,71,0.00,,,0.00,WUHU216DAVISVP2,2013-02-02 02:44:00,
2013-02-01 20:49:00,53.7,44.6,30.24,SSW,211,0.0,1.0,71,0.00,,,0.00,WUHU216DAVISVP2,2013-02-02 02:49:00,
2013-02-01 20:54:00,53.6,44.5,30.24,SSW,211,0.0,1.0,71,0.00,,,0.00,WUHU216DAVISVP2,2013-02-02 02:54:00,
2013-02-01 20:59:00,53.2,44.1,30.24,SSW,211,0.0,1.0,71,0.00,,,0.00,WUHU216DAVISVP2,2013-02-02 02:59:00,
2013-02-01 21:04:00,53.0,44.0,30.24,SSW,211,0.0,1.0,71,0.00,,,0.00,WUHU216DAVISVP2,2013-02-02 03:04:00,
2013-02-01 21:09:00,52.6,44.3,30.25,SSW,211,0.0,1.0,73,0.00,,,0.00,WUHU216DAVISVP2,2013-02-02 03:09:00,
2013-02-01 21:14:00,52.2,44.2,30.25,SSW,211,0.0,1.0,74,0.00,,,0.00,WUHU216DAVISVP2,2013-02-02 03:14:00,
2013-02-01 21:19:00,51.9,44.0,30.25,SSW,211,0.0,1.0,74,0.00,,,0.00,WUHU216DAVISVP2,2013-02-02 03:19:00,
2013-02-01 21:24:00,51.8,44.2,30.25,SSW,211,0.0,1.0,75,0.00,,,0.00,WUHU216DAVISVP2,2013-02-02 03:24:00,
2013-02-01 21:29:00,51.8,44.2,30.25,SSW,211,0.0,1.0,75,0.00,,,0.00,WUHU216DAVISVP2,2013-02-02 03:29:00,
2013-02-01 21:34:00,51.8,44.5,30.25,SSW,211,0.0,1.0,76,0.00,,,0.00,WUHU216DAVISVP2,2013-02-02 03:34:00,
2013-02-01 21:39:00,51.7,44.4,30.25,SSW,211,0.0,1.0,76,0.00,,,0.00,WUHU216DAVISVP2,2013-02-02 03:39:00,
2013-02-01 21:44:00,51.6,44.0,30.25,SSW,211,0.0,1.0,75,0.00,,,0.00,WUHU216DAVISVP2,2013-02-02 03:44:00,
2013-02-01 21:49:00,51.5,44.3,30.25,SSW,211,0.0,1.0,76,0.00,,,0.00,WUHU216DAVISVP2,2013-02-02 03:49:00,
2013-02-01 21:54:00,51.4,44.1,30.25,SSW,211,0.0,1.0,76,0.00,,,0.00,WUHU216DAVISVP2,2013-02-02 03:54:00,
2013-02-01 21:59:00,51.5,44.2,30.25,SSW,211,1.0,2.0,76,0.00,,,0.00,WUHU216DAVISVP2,2013-02-02 03:59:00,
2013-02-01 22:04:00,51.8,44.5,30.25,SSW,211,0.0,2.0,76,0.00,,,0.00,WUHU216DAVISVP2,2013-02-02 04:04:00,
2013-02-01 22:09:00,51.9,44.6,30.25,SSW,211,1.0,2.0,76,0.00,,,0.00,WUHU216DAVISVP2,2013-02-02 04:09:00,
2013-02-01 22:14:00,52.0,44.7,30.25,SSW,211,0.0,2.0,76,0.00,,,0.00,WUHU216DAVISVP2,2013-02-02 04:14:00,
2013-02-01 22:19:00,51.8,44.1,30.25,SSW,211,0.0,2.0,75,0.00,,,0.00,WUHU216DAVISVP2,2013-02-02 04:19:00,
2013-02-01 22:24:00,51.6,44.4,30.25,SSW,211,0.0,1.0,76,0.00,,,0.00,WUHU216DAVISVP2,2013-02-02 04:24:00,
2013-02-01 22:29:00,51.5,44.9,30.24,SSW,211,0.0,1.0,78,0.00,,,0.00,WUHU216DAVISVP2,2013-02-02 04:29:00,
2013-02-01 22:34:00,51.3,44.4,30.24,SSW,211,0.0,0.0,77,0.00,,,0.00,WUHU216DAVISVP2,2013-02-02 04:34:00,
2013-02-01 22:39:00,51.0,44.4,30.24,SSW,211,0.0,1.0,78,0.00,,,0.00,WUHU216DAVISVP2,2013-02-02 04:39:00,
2013-02-01 22:44:00,50.8,44.6,30.24,SSW,211,0.0,1.0,79,0.00,,,0.00,WUHU216DAVISVP2,2013-02-02 04:44:00,
2013-02-01 22:49:00,50.6,44.4,30.24,SSW,211,0.0,1.0,79,0.00,,,0.00,WUHU216DAVISVP2,2013-02-02 04:49:00,
2013-02-01 22:54:00,50.5,44.3,30.24,SSW,211,0.0,1.0,79,0.00,,,0.00,WUHU216DAVISVP2,2013-02-02 04:54:00,
2013-02-01 22:59:00,50.5,44.6,30.23,SSW,211,0.0,1.0,80,0.00,,,0.00,WUHU216DAVISVP2,2013-02-02 04:59:00,
2013-02-01 23:00:00,50.5,44.6,30.23,SSW,211,0.0,1.0,80,0.00,,,0.00,WUHU216DAVISVP2,2013-02-02 05:00:00,
2013-02-01 23:05:00,50.4,44.5,30.23,SSW,211,0.0,1.0,80,0.00,,,0.00,WUHU216DAVISVP2,2013-02-02 05:05:00,
2013-02-01 23:10:00,50.2,43.9,30.23,SSW,211,0.0,1.0,79,0.00,,,0.00,WUHU216DAVISVP2,2013-02-02 05:10:00,
2013-02-01 23:15:00,50.0,44.1,30.23,SSW,211,0.0,1.0,80,0.00,,,0.00,WUHU216DAVISVP2,2013-02-02 05:15:00,
2013-02-01 23:20:00,50.0,44.4,30.22,SSW,211,0.0,1.0,81,0.00,,,0.00,WUHU216DAVISVP2,2013-02-02 05:20:00,
2013-02-01 23:25:00,49.9,44.3,30.23,SSW,211,0.0,1.0,81,0.00,,,0.00,WUHU216DAVISVP2,2013-02-02 05:25:00,
2013-02-01 23:30:00,49.7,43.8,30.23,SSW,211,0.0,1.0,80,0.00,,,0.00,WUHU216DAVISVP2,2013-02-02 05:30:00,
2013-02-01 23:35:00,49.7,43.8,30.23,SSW,211,0.0,1.0,80,0.00,,,0.00,WUHU216DAVISVP2,2013-02-02 05:35:00,
2013-02-01 23:40:00,49.6,44.3,30.23,SSW,211,0.0,1.0,82,0.00,,,0.00,WUHU216DAVISVP2,2013-02-02 05:40:00,
2013-02-01 23:45:00,49.8,44.5,30.23,SSW,211,0.0,2.0,82,0.00,,,0.00,WUHU216DAVISVP2,2013-02-02 05:45:00,
2013-02-01 23:50:00,50.0,44.7,30.23,SSW,211,0.0,2.0,82,0.00,,,0.00,WUHU216DAVISVP2,2013-02-02 05:50:00,
2013-02-01 23:55:00,49.9,44.3,30.22,SSW,211,0.0,2.0,81,0.00,,,0.00,WUHU216DAVISVP2,2013-02-02 05:55:00,